Time,TemperatureF,DewpointF,PressureIn,WindDirection,WindDirectionDegrees,WindSpeedMPH,WindSpeedGustMPH,Humidity,HourlyPrecipIn,Conditions,Clouds,dailyrainin,SoftwareType,DateUTC
2013-08-25 00:09:00,56.2,54.0,29.90,North,6,0.0,0.0,92,0.00,,,0.00,weatherlink.com 1.10,2013-08-25 07:09:00,
2013-08-25 00:24:00,56.7,55.0,29.90,North,6,0.0,0.0,92,0.00,,,0.00,weatherlink.com 1.10,2013-08-25 07:24:00,
2013-08-25 00:39:00,56.6,54.0,29.89,North,6,0.0,0.0,92,0.00,,,0.00,weatherlink.com 1.10,2013-08-25 07:39:00,
2013-08-25 00:54:00,56.8,55.0,29.89,North,6,0.0,0.0,92,0.00,,,0.00,weatherlink.com 1.10,2013-08-25 07:54:00,
2013-08-25 01:09:00,56.6,54.0,29.89,North,8,0.0,0.0,92,0.00,,,0.00,weatherlink.com 1.10,2013-08-25 08:09:00,
2013-08-25 01:24:00,56.4,54.0,29.90,North,8,0.0,0.0,92,0.00,,,0.00,weatherlink.com 1.10,2013-08-25 08:24:00,
2013-08-25 01:39:00,57.0,55.0,29.90,North,6,0.0,0.0,92,0.00,,,0.00,weatherlink.com 1.10,2013-08-25 08:39:00,
2013-08-25 01:54:00,57.0,55.0,29.89,North,8,0.0,0.0,92,0.00,,,0.00,weatherlink.com 1.10,2013-08-25 08:54:00,
2013-08-25 02:09:00,56.8,55.0,29.89,North,8,0.0,0.0,92,0.00,,,0.00,weatherlink.com 1.10,2013-08-25 09:09:00,
2013-08-25 02:24:00,56.4,54.0,29.89,North,8,0.0,0.0,92,0.00,,,0.00,weatherlink.com 1.10,2013-08-25 09:24:00,
2013-08-25 02:39:00,55.7,54.0,29.89,North,8,0.0,0.0,92,0.00,,,0.00,weatherlink.com 1.10,2013-08-25 09:39:00,
2013-08-25 02:54:00,55.7,54.0,29.89,North,8,0.0,0.0,92,0.00,,,0.00,weatherlink.com 1.10,2013-08-25 09:54:00,
2013-08-25 03:09:00,55.3,53.0,29.89,North,8,0.0,0.0,92,0.00,,,0.00,weatherlink.com 1.10,2013-08-25 10:09:00,
2013-08-25 03:24:00,55.9,54.0,29.89,North,8,0.0,0.0,92,0.00,,,0.00,weatherlink.com 1.10,2013-08-25 10:24:00,
2013-08-25 03:39:00,55.4,53.0,29.89,North,8,0.0,0.0,92,0.00,,,0.00,weatherlink.com 1.10,2013-08-25 10:39:00,
2013-08-25 03:55:00,55.5,53.0,29.89,North,6,0.0,0.0,92,0.00,,,0.00,weatherlink.com 1.10,2013-08-25 10:55:00,
2013-08-25 04:09:00,55.1,53.0,29.88,North,8,0.0,0.0,92,0.00,,,0.00,weatherlink.com 1.10,2013-08-25 11:09:00,
2013-08-25 04:24:00,54.6,52.0,29.88,North,8,0.0,0.0,92,0.00,,,0.00,weatherlink.com 1.10,2013-08-25 11:24:00,
2013-08-25 04:39:00,54.4,52.0,29.88,North,8,0.0,0.0,92,0.00,,,0.00,weatherlink.com 1.10,2013-08-25 11:39:00,
2013-08-25 04:54:00,54.5,52.0,29.88,North,8,0.0,0.0,92,0.00,,,0.00,weatherlink.com 1.10,2013-08-25 11:54:00,
2013-08-25 05:09:00,54.5,52.0,29.88,North,6,0.0,0.0,92,0.00,,,0.00,weatherlink.com 1.10,2013-08-25 12:09:00,
2013-08-25 05:24:00,54.2,52.0,29.88,North,8,0.0,0.0,92,0.00,,,0.00,weatherlink.com 1.10,2013-08-25 12:24:00,
2013-08-25 05:39:00,53.7,52.0,29.88,North,8,0.0,0.0,92,0.00,,,0.00,weatherlink.com 1.10,2013-08-25 12:39:00,
2013-08-25 05:54:00,53.5,51.0,29.88,North,8,0.0,0.0,92,0.00,,,0.00,weatherlink.com 1.10,2013-08-25 12:54:00,
2013-08-25 06:09:00,53.4,51.0,29.88,North,8,0.0,0.0,92,0.00,,,0.00,weatherlink.com 1.10,2013-08-25 13:09:00,
2013-08-25 06:24:00,53.6,51.0,29.89,North,8,0.0,0.0,92,0.00,,,0.00,weatherlink.com 1.10,2013-08-25 13:24:00,
2013-08-25 06:39:00,52.9,51.0,29.89,North,6,0.0,0.0,92,0.00,,,0.00,weatherlink.com 1.10,2013-08-25 13:39:00,
2013-08-25 06:54:00,53.4,51.0,29.89,NE,51,0.0,0.0,92,0.00,,,0.00,weatherlink.com 1.10,2013-08-25 13:54:00,
2013-08-25 07:09:00,53.7,52.0,29.90,NE,56,0.0,1.0,92,0.00,,,0.00,weatherlink.com 1.10,2013-08-25 14:09:00,
2013-08-25 07:24:00,54.1,52.0,29.90,NE,53,0.0,0.0,92,0.00,,,0.00,weatherlink.com 1.10,2013-08-25 14:24:00,
2013-08-25 07:39:00,54.7,53.0,29.90,NE,53,0.0,0.0,92,0.00,,,0.00,weatherlink.com 1.10,2013-08-25 14:39:00,
2013-08-25 07:54:00,55.1,53.0,29.90,NE,54,0.0,0.0,92,0.00,,,0.00,weatherlink.com 1.10,2013-08-25 14:54:00,
2013-08-25 08:09:00,55.5,53.0,29.90,NE,51,0.0,0.0,92,0.00,,,0.00,weatherlink.com 1.10,2013-08-25 15:09:00,
2013-08-25 08:24:00,55.9,54.0,29.90,NE,43,0.0,0.0,92,0.00,,,0.00,weatherlink.com 1.10,2013-08-25 15:24:00,
2013-08-25 08:39:00,56.7,55.0,29.89,NE,43,0.0,0.0,92,0.00,,,0.00,weatherlink.com 1.10,2013-08-25 15:39:00,
2013-08-25 08:54:00,58.2,56.0,29.89,NE,44,0.0,0.0,92,0.00,,,0.00,weatherlink.com 1.10,2013-08-25 15:54:00,
2013-08-25 09:09:00,58.2,56.0,29.89,North,6,1.0,1.0,92,0.00,,,0.00,weatherlink.com 1.10,2013-08-25 16:09:00,
2013-08-25 09:24:00,56.8,55.0,29.90,North,6,0.0,2.0,92,0.00,,,0.00,weatherlink.com 1.10,2013-08-25 16:24:00,
2013-08-25 09:39:00,56.9,55.0,29.89,North,8,0.0,2.0,92,0.00,,,0.00,weatherlink.com 1.10,2013-08-25 16:39:00,
2013-08-25 09:54:00,58.1,56.0,29.90,North,8,1.0,1.0,92,0.00,,,0.00,weatherlink.com 1.10,2013-08-25 16:54:00,
2013-08-25 10:09:00,58.2,56.0,29.90,North,8,0.0,0.0,92,0.00,,,0.00,weatherlink.com 1.10,2013-08-25 17:09:00,
2013-08-25 10:24:00,58.0,56.0,29.91,North,6,0.0,0.0,92,0.00,,,0.00,weatherlink.com 1.10,2013-08-25 17:24:00,
2013-08-25 10:39:00,57.2,55.0,29.91,North,4,2.0,2.0,92,0.00,,,0.00,weatherlink.com 1.10,2013-08-25 17:39:00,
2013-08-25 10:54:00,56.6,54.0,29.91,North,1,0.0,2.0,92,0.00,,,0.00,weatherlink.com 1.10,2013-08-25 17:54:00,
2013-08-25 11:09:00,57.3,55.0,29.91,North,1,0.0,0.0,92,0.00,,,0.00,weatherlink.com 1.10,2013-08-25 18:09:00,
2013-08-25 11:24:00,58.4,56.0,29.91,North,1,0.0,0.0,92,0.00,,,0.00,weatherlink.com 1.10,2013-08-25 18:24:00,
2013-08-25 11:39:00,59.8,58.0,29.90,NE,40,0.0,2.0,92,0.00,,,0.00,weatherlink.com 1.10,2013-08-25 18:39:00,
2013-08-25 11:55:00,61.8,59.0,29.90,NE,46,0.0,1.0,91,0.00,,,0.00,weatherlink.com 1.10,2013-08-25 18:55:00,
2013-08-25 12:10:00,64.6,62.0,29.89,NE,40,1.0,1.0,90,0.00,,,0.00,weatherlink.com 1.10,2013-08-25 19:10:00,
2013-08-25 12:25:00,66.7,62.0,29.89,NE,51,0.0,1.0,84,0.00,,,0.00,weatherlink.com 1.10,2013-08-25 19:25:00,
2013-08-25 12:40:00,64.9,58.0,29.89,North,359,1.0,2.0,79,0.00,,,0.00,weatherlink.com 1.10,2013-08-25 19:40:00,
2013-08-25 12:55:00,63.4,58.0,29.89,WNW,287,0.0,3.0,82,0.00,,,0.00,weatherlink.com 1.10,2013-08-25 19:55:00,
2013-08-25 13:10:00,64.2,58.0,29.89,West,280,0.0,2.0,81,0.00,,,0.00,weatherlink.com 1.10,2013-08-25 20:10:00,
2013-08-25 13:25:00,65.2,59.0,29.89,West,277,1.0,2.0,80,0.00,,,0.00,weatherlink.com 1.10,2013-08-25 20:25:00,
2013-08-25 13:40:00,65.9,59.0,29.89,West,281,1.0,1.0,78,0.00,,,0.00,weatherlink.com 1.10,2013-08-25 20:40:00,
2013-08-25 13:55:00,65.2,58.0,29.89,West,271,2.0,2.0,78,0.00,,,0.00,weatherlink.com 1.10,2013-08-25 20:55:00,
2013-08-25 14:10:00,65.0,57.0,29.89,West,276,1.0,2.0,76,0.00,,,0.00,weatherlink.com 1.10,2013-08-25 21:10:00,
2013-08-25 14:25:00,64.8,59.0,29.89,West,267,1.0,2.0,81,0.00,,,0.00,weatherlink.com 1.10,2013-08-25 21:25:00,
2013-08-25 14:40:00,64.1,59.0,29.89,West,269,1.0,2.0,82,0.00,,,0.00,weatherlink.com 1.10,2013-08-25 21:40:00,
2013-08-25 14:55:00,64.3,58.0,29.89,West,269,0.0,1.0,81,0.00,,,0.00,weatherlink.com 1.10,2013-08-25 21:55:00,
2013-08-25 15:10:00,64.5,58.0,29.89,West,266,2.0,2.0,79,0.00,,,0.00,weatherlink.com 1.10,2013-08-25 22:10:00,
2013-08-25 15:25:00,65.2,58.0,29.89,West,281,1.0,2.0,78,0.00,,,0.00,weatherlink.com 1.10,2013-08-25 22:25:00,
2013-08-25 15:40:00,64.8,58.0,29.90,West,278,1.0,2.0,78,0.00,,,0.00,weatherlink.com 1.10,2013-08-25 22:40:00,
2013-08-25 15:55:00,64.1,58.0,29.90,West,270,1.0,2.0,80,0.00,,,0.00,weatherlink.com 1.10,2013-08-25 22:55:00,
2013-08-25 16:10:00,63.5,58.0,29.90,WNW,285,1.0,2.0,81,0.00,,,0.00,weatherlink.com 1.10,2013-08-25 23:10:00,
2013-08-25 16:25:00,62.9,57.0,29.90,West,278,0.0,1.0,82,0.00,,,0.00,weatherlink.com 1.10,2013-08-25 23:25:00,
2013-08-25 16:40:00,62.8,58.0,29.89,West,277,0.0,0.0,85,0.00,,,0.00,weatherlink.com 1.10,2013-08-25 23:40:00,
2013-08-25 16:55:00,62.5,58.0,29.89,West,276,0.0,1.0,85,0.00,,,0.00,weatherlink.com 1.10,2013-08-25 23:55:00,
2013-08-25 17:10:00,62.3,58.0,29.89,West,276,0.0,0.0,85,0.00,,,0.00,weatherlink.com 1.10,2013-08-26 00:10:00,
2013-08-25 17:25:00,61.5,57.0,29.89,West,279,0.0,3.0,84,0.00,,,0.00,weatherlink.com 1.10,2013-08-26 00:25:00,
2013-08-25 17:40:00,60.5,56.0,29.90,WNW,286,0.0,2.0,85,0.00,,,0.00,weatherlink.com 1.10,2013-08-26 00:40:00,
2013-08-25 17:55:00,59.9,56.0,29.90,West,278,0.0,1.0,88,0.00,,,0.00,weatherlink.com 1.10,2013-08-26 00:55:00,
2013-08-25 18:10:00,59.3,56.0,29.90,West,280,1.0,1.0,89,0.00,,,0.00,weatherlink.com 1.10,2013-08-26 01:10:00,
2013-08-25 18:25:00,59.3,56.0,29.90,West,262,1.0,2.0,89,0.00,,,0.00,weatherlink.com 1.10,2013-08-26 01:25:00,
2013-08-25 18:40:00,59.2,56.0,29.90,West,262,0.0,1.0,90,0.00,,,0.00,weatherlink.com 1.10,2013-08-26 01:40:00,
2013-08-25 18:55:00,59.2,57.0,29.90,NE,49,0.0,1.0,91,0.00,,,0.00,weatherlink.com 1.10,2013-08-26 01:55:00,
2013-08-25 19:10:00,58.8,56.0,29.90,West,262,0.0,1.0,91,0.00,,,0.00,weatherlink.com 1.10,2013-08-26 02:10:00,
2013-08-25 19:25:00,58.6,56.0,29.90,WSW,256,0.0,0.0,91,0.00,,,0.00,weatherlink.com 1.10,2013-08-26 02:25:00,
2013-08-25 19:40:00,58.4,56.0,29.90,West,270,0.0,1.0,92,0.00,,,0.00,weatherlink.com 1.10,2013-08-26 02:40:00,
2013-08-25 19:55:00,57.9,56.0,29.90,West,281,1.0,2.0,92,0.00,,,0.00,weatherlink.com 1.10,2013-08-26 02:55:00,
2013-08-25 20:10:00,57.5,55.0,29.91,West,271,0.0,2.0,92,0.00,,,0.00,weatherlink.com 1.10,2013-08-26 03:10:00,
2013-08-25 20:25:00,56.7,55.0,29.90,West,278,0.0,2.0,92,0.00,,,0.00,weatherlink.com 1.10,2013-08-26 03:25:00,
2013-08-25 20:40:00,56.2,54.0,29.91,West,273,0.0,0.0,92,0.00,,,0.00,weatherlink.com 1.10,2013-08-26 03:40:00,
2013-08-25 20:55:00,56.0,54.0,29.91,West,272,0.0,0.0,92,0.00,,,0.00,weatherlink.com 1.10,2013-08-26 03:55:00,
2013-08-25 21:10:00,55.7,54.0,29.91,West,273,0.0,0.0,92,0.00,,,0.00,weatherlink.com 1.10,2013-08-26 04:10:00,
2013-08-25 21:25:00,55.2,53.0,29.91,West,272,0.0,0.0,92,0.00,,,0.00,weatherlink.com 1.10,2013-08-26 04:25:00,
2013-08-25 21:40:00,55.1,53.0,29.91,West,273,0.0,0.0,92,0.00,,,0.00,weatherlink.com 1.10,2013-08-26 04:40:00,
2013-08-25 21:55:00,54.9,53.0,29.91,WNW,284,2.0,3.0,92,0.00,,,0.00,weatherlink.com 1.10,2013-08-26 04:55:00,
2013-08-25 22:10:00,54.9,53.0,29.91,WSW,257,1.0,2.0,92,0.00,,,0.00,weatherlink.com 1.10,2013-08-26 05:10:00,
2013-08-25 22:25:00,54.4,52.0,29.91,WSW,256,0.0,2.0,92,0.00,,,0.00,weatherlink.com 1.10,2013-08-26 05:25:00,
2013-08-25 22:40:00,54.1,52.0,29.91,West,277,0.0,0.0,92,0.00,,,0.00,weatherlink.com 1.10,2013-08-26 05:40:00,
2013-08-25 22:55:00,53.7,52.0,29.91,West,277,0.0,0.0,92,0.00,,,0.00,weatherlink.com 1.10,2013-08-26 05:55:00,
2013-08-25 23:10:00,54.0,52.0,29.91,WNW,283,1.0,3.0,92,0.00,,,0.00,weatherlink.com 1.10,2013-08-26 06:10:00,
2013-08-25 23:25:00,53.9,52.0,29.91,West,263,0.0,0.0,92,0.00,,,0.00,weatherlink.com 1.10,2013-08-26 06:25:00,
2013-08-25 23:40:00,54.0,52.0,29.91,WSW,258,0.0,2.0,92,0.00,,,0.00,weatherlink.com 1.10,2013-08-26 06:40:00,
2013-08-25 23:55:00,54.0,52.0,29.91,SE,124,2.0,3.0,92,0.00,,,0.00,weatherlink.com 1.10,2013-08-26 06:55:00,